Weather History for Zephyrhills, FL

Change the Weather History Date:

Tuesday, December 11, 2012

  Actual Average (KPCM) Record (KPCM)
Temperature  
Mean Temperature 72 °F -  
Max Temperature 80 °F 75 °F 86 °F (2007)
Min Temperature 64 °F 52 °F 26 °F (1981)
Cooling Degree Days 7    
Growing Degree Days 22 (Base 50)    
Moisture  
Dew Point 69 °F    
Average Humidity 94    
Maximum Humidity 100    
Minimum Humidity 70    
Precipitation  
Precipitation 0.00 in - - ()
Sea Level Pressure  
Sea Level Pressure 29.98 in    
Wind  
Wind Speed - (North)    
Max Wind Speed -    
Max Gust Speed -    
Visibility 6 miles    
Events Fog , Rain    
Averages and records for this station are not official NWS values.
T = Trace of Precipitation, MM = Missing Value Source: NWS Daily Summary

Daily Weather History Graph

Daily Weather History Graph

Search for Another Location

Airport:

Trip Planner

Search our weather history database for the weather conditions in past years. The results will help you decide how hot, cold, wet, or windy it might be!

Date:

Astronomy

Dec. 11, 2012 Rise Set
Actual Time 7:10 AM EST 5:33 PM EST
Civil Twilight 6:44 AM EST 5:59 PM EST
Nautical Twilight 6:15 AM EST 6:28 PM EST
Astronomical Twilight 5:46 AM EST 6:57 PM EST
Moon 5:08 AM EST (12/11) 4:08 PM EST (12/11)
Length of Visible Light 11h 14m
Length of Day
10h 22m
Waning Crescent, 4% of the Moon is Illuminated
Dec 11
Waning Crescent
Dec 13
New
Dec 20
First Quarter
Dec 28
Full
Jan 4
Last Quarter

Hourly Weather History & Observations

Time (EST) Temp. Heat Index Dew Point Humidity Pressure Visibility Wind Dir Wind Speed Gust Speed Precip Events Conditions
12:15 AM 66.2 °F - 66.2 °F 100% 29.92 in 7.0 mi North - - N/A   Scattered Clouds
12:35 AM 66.2 °F - 66.2 °F 100% 29.92 in 7.0 mi North - - N/A   Scattered Clouds
12:55 AM 66.2 °F - 66.2 °F 100% 29.92 in 7.0 mi North - - N/A   Scattered Clouds
1:15 AM 66.2 °F - 66.2 °F 100% 29.92 in 7.0 mi North - - N/A   Scattered Clouds
1:35 AM 66.2 °F - 66.2 °F 100% 29.92 in 7.0 mi North - - N/A   Scattered Clouds
1:55 AM 64.4 °F - 64.4 °F 100% 29.93 in 7.0 mi North - - N/A   Scattered Clouds
2:15 AM 64.4 °F - 64.4 °F 100% 29.92 in 5.0 mi North - - N/A   Scattered Clouds
2:35 AM 64.4 °F - 64.4 °F 100% 29.92 in 3.0 mi North - - N/A   Overcast
2:55 AM 64.4 °F - 64.4 °F 100% 29.92 in 3.0 mi North - - N/A   Overcast
3:15 AM 66.2 °F - 66.2 °F 100% 29.92 in 0.8 mi North - - N/A   Overcast
3:35 AM 66.2 °F - 66.2 °F 100% 29.92 in 0.8 mi North - - N/A   Overcast
3:55 AM 66.2 °F - 66.2 °F 100% 29.92 in 0.5 mi North - - N/A Fog Fog
4:15 AM 66.2 °F - 66.2 °F 100% 29.93 in 0.5 mi North - - N/A Fog Fog
4:35 AM 66.2 °F - 66.2 °F 100% 29.93 in 0.8 mi North - - N/A   Overcast
4:55 AM 66.2 °F - 66.2 °F 100% 29.93 in 0.8 mi North - - N/A   Overcast
5:15 AM 66.2 °F - 66.2 °F 100% 29.93 in 0.8 mi North - - N/A   Overcast
5:35 AM 66.2 °F - 66.2 °F 100% 29.94 in 0.5 mi North - - N/A Fog Fog
5:55 AM 66.2 °F - 66.2 °F 100% 29.94 in 0.5 mi North - - N/A Fog Fog
6:15 AM 66.2 °F - 66.2 °F 100% 29.94 in 0.5 mi North - - N/A Fog Fog
6:35 AM 66.2 °F - 66.2 °F 100% 29.95 in 0.5 mi North - - N/A Fog Fog
6:55 AM 66.2 °F - 66.2 °F 100% 29.96 in 0.5 mi North - - N/A Fog Fog
7:15 AM 66.2 °F - 66.2 °F 100% 29.97 in 0.5 mi North - - N/A Fog Fog
7:35 AM 66.2 °F - 66.2 °F 100% 29.97 in 0.5 mi North - - N/A Fog Fog
7:55 AM 66.2 °F - 66.2 °F 100% 29.97 in 1.2 mi North - - N/A   Overcast
8:15 AM 66.2 °F - 66.2 °F 100% 29.97 in 5.0 mi North - - N/A   Overcast
8:35 AM 66.2 °F - 66.2 °F 100% 29.98 in 7.0 mi North - - N/A   Overcast
8:55 AM 68.0 °F - 68.0 °F 100% 29.99 in 7.0 mi North - - N/A   Overcast
9:15 AM 68.0 °F - 68.0 °F 100% 29.99 in 7.0 mi North - - N/A   Overcast
9:35 AM 68.0 °F - 68.0 °F 100% 30.00 in 5.0 mi North - - N/A   Overcast
9:55 AM 69.8 °F - 69.8 °F 100% 30.00 in 7.0 mi North - - N/A   Mostly Cloudy
10:15 AM 71.6 °F - 71.6 °F 100% 30.01 in 10.0 mi North - - N/A   Mostly Cloudy
10:35 AM 75.2 °F - 71.6 °F 89% 30.01 in 10.0 mi North - - N/A   Mostly Cloudy
10:55 AM 77.0 °F - 71.6 °F 83% 30.01 in 10.0 mi North - - N/A   Scattered Clouds
11:15 AM 77.0 °F - 73.4 °F 89% 30.01 in 10.0 mi North - - N/A   Mostly Cloudy
11:35 AM 77.0 °F - 73.4 °F 89% 30.01 in 10.0 mi North - - N/A   Overcast
11:55 AM 78.8 °F - 75.2 °F 89% 30.00 in 10.0 mi North - - N/A   Overcast
12:15 PM 80.6 °F 85.4 °F 73.4 °F 79% 29.99 in 10.0 mi North - - N/A   Mostly Cloudy
12:35 PM 80.6 °F 83.9 °F 69.8 °F 70% 29.99 in 10.0 mi North - - N/A   Mostly Cloudy
12:55 PM 80.6 °F 83.9 °F 69.8 °F 70% 29.97 in 10.0 mi North - - N/A   Overcast
1:15 PM 78.8 °F - 69.8 °F 74% 29.97 in 10.0 mi North - - N/A   Overcast
1:35 PM 78.8 °F - 69.8 °F 74% 29.97 in 10.0 mi North - - N/A   Mostly Cloudy
1:55 PM 78.8 °F - 69.8 °F 74% 29.97 in 10.0 mi North - - N/A   Mostly Cloudy
2:15 PM 78.8 °F - 69.8 °F 74% 29.97 in 10.0 mi North - - N/A   Scattered Clouds
2:35 PM 78.8 °F - 69.8 °F 74% 29.97 in 10.0 mi North - - N/A   Clear
2:55 PM 78.8 °F - 69.8 °F 74% 29.96 in 10.0 mi North - - N/A   Clear
3:15 PM 78.8 °F - 69.8 °F 74% 29.96 in 10.0 mi North - - N/A   Clear
3:35 PM 78.8 °F - 69.8 °F 74% 29.96 in 10.0 mi North - - N/A   Scattered Clouds
3:55 PM 77.0 °F - 69.8 °F 78% 29.96 in 10.0 mi North - - N/A   Scattered Clouds
4:15 PM 77.0 °F - 69.8 °F 78% 29.97 in 10.0 mi North - - N/A   Scattered Clouds
4:35 PM 77.0 °F - 69.8 °F 78% 29.98 in 10.0 mi North - - N/A   Mostly Cloudy
4:55 PM 75.2 °F - 71.6 °F 89% 29.97 in 10.0 mi North - - N/A   Mostly Cloudy
5:15 PM 75.2 °F - 71.6 °F 89% 29.98 in 10.0 mi North - - N/A   Scattered Clouds
5:35 PM 73.4 °F - 71.6 °F 94% 29.96 in 10.0 mi North - - N/A Rain Light Rain
5:55 PM 73.4 °F - 71.6 °F 94% 29.96 in 10.0 mi North - - N/A   Scattered Clouds
6:15 PM 71.6 °F - 71.6 °F 100% 29.97 in 10.0 mi North - - N/A   Scattered Clouds
6:35 PM 71.6 °F - 71.6 °F 100% 29.97 in 10.0 mi North - - N/A   Clear
6:55 PM 71.6 °F - 71.6 °F 100% 29.98 in 10.0 mi North - - N/A   Clear
7:15 PM 71.6 °F - 71.6 °F 100% 29.99 in 10.0 mi North - - N/A   Scattered Clouds
7:35 PM 69.8 °F - 69.8 °F 100% 30.00 in 10.0 mi North - - N/A   Clear
7:55 PM 69.8 °F - 69.8 °F 100% 30.01 in 3.0 mi North - - N/A   Clear
8:15 PM 69.8 °F - 69.8 °F 100% 30.02 in 1.8 mi North - - N/A   Mist
8:35 PM 68.0 °F - 68.0 °F 100% 30.02 in 1.0 mi North - - N/A   Mist
8:55 PM 68.0 °F - 68.0 °F 100% 30.03 in 3.0 mi North - - N/A   Clear
9:15 PM 68.0 °F - 68.0 °F 100% 30.04 in 7.0 mi North - - N/A   Scattered Clouds
9:35 PM 68.0 °F - 68.0 °F 100% 30.04 in 5.0 mi North - - N/A   Mostly Cloudy
9:55 PM 68.0 °F - 68.0 °F 100% 30.04 in 7.0 mi North - - N/A   Scattered Clouds
10:15 PM 68.0 °F - 68.0 °F 100% 30.05 in 7.0 mi North - - N/A   Clear
10:35 PM 68.0 °F - 68.0 °F 100% 30.06 in 7.0 mi North - - N/A   Clear
10:55 PM 68.0 °F - 68.0 °F 100% 30.05 in 7.0 mi North - - N/A   Scattered Clouds
11:15 PM 68.0 °F - 68.0 °F 100% 30.04 in 5.0 mi North - - N/A   Scattered Clouds
11:35 PM 68.0 °F - 68.0 °F 100% 30.04 in 0.8 mi North - - N/A   Mostly Cloudy
11:55 PM 68.0 °F - 68.0 °F 100% 30.03 in 1.2 mi North - - N/A   Scattered Clouds